Time,TemperatureF,DewpointF,PressureIn,WindDirection,WindDirectionDegrees,WindSpeedMPH,WindSpeedGustMPH,Humidity,HourlyPrecipIn,Conditions,Clouds,dailyrainin,SoftwareType,DateUTC
2013-01-08 00:02:00,26.0,19.0,-100.00,WSW,255,1.0,7.0,79,0.00,,,0.00,,2013-01-08 06:02:00,
2013-01-08 00:12:00,26.0,19.0,-100.00,West,275,4.0,11.0,80,0.00,,,0.00,,2013-01-08 06:12:00,
2013-01-08 00:22:00,26.0,19.0,-100.00,West,265,4.0,9.0,80,0.00,,,0.00,,2013-01-08 06:22:00,
2013-01-08 00:32:00,24.0,19.0,-100.00,WSW,250,2.0,6.0,81,0.00,,,0.00,,2013-01-08 06:32:00,
2013-01-08 00:42:00,24.0,19.0,-100.00,WSW,240,4.0,6.0,83,0.00,,,0.00,,2013-01-08 06:42:00,
2013-01-08 00:52:00,23.0,19.0,-100.00,WSW,255,0.0,4.0,84,0.00,,,0.00,,2013-01-08 06:52:00,
2013-01-08 01:02:00,22.0,19.0,-100.00,WSW,255,0.0,3.0,85,0.00,,,0.00,,2013-01-08 07:02:00,
2013-01-08 01:12:00,22.0,19.0,-100.00,WSW,250,1.0,3.0,86,0.00,,,0.00,,2013-01-08 07:12:00,
2013-01-08 01:22:00,22.0,19.0,-100.00,WSW,245,2.0,4.0,88,0.00,,,0.00,,2013-01-08 07:22:00,
2013-01-08 01:32:00,22.0,19.0,-100.00,WSW,250,1.0,4.0,88,0.00,,,0.00,,2013-01-08 07:32:00,
2013-01-08 01:42:00,22.0,19.0,-100.00,West,260,0.0,2.0,89,0.00,,,0.00,,2013-01-08 07:42:00,
2013-01-08 01:52:00,21.0,18.0,-100.00,WSW,250,0.0,4.0,89,0.00,,,0.00,,2013-01-08 07:52:00,
2013-01-08 02:02:00,22.0,19.0,-100.00,West,265,1.0,5.0,90,0.00,,,0.00,,2013-01-08 08:02:00,
2013-01-08 02:12:00,21.0,19.0,-100.00,West,260,0.0,6.0,90,0.00,,,0.00,,2013-01-08 08:12:00,
2013-01-08 02:22:00,21.0,19.0,-100.00,WSW,255,0.0,7.0,90,0.00,,,0.00,,2013-01-08 08:22:00,
2013-01-08 02:32:00,21.0,19.0,-100.00,WSW,255,0.0,4.0,90,0.00,,,0.00,,2013-01-08 08:32:00,
2013-01-08 02:42:00,21.0,19.0,-100.00,WSW,255,1.0,3.0,91,0.00,,,0.00,,2013-01-08 08:42:00,
2013-01-08 02:52:00,22.0,19.0,-100.00,WSW,255,1.0,7.0,91,0.00,,,0.00,,2013-01-08 08:52:00,
2013-01-08 03:02:00,20.0,18.0,-100.00,WSW,250,2.0,4.0,92,0.00,,,0.00,,2013-01-08 09:02:00,
2013-01-08 03:12:00,21.0,19.0,-100.00,WSW,255,2.0,6.0,92,0.00,,,0.00,,2013-01-08 09:12:00,
2013-01-08 03:22:00,21.0,19.0,-100.00,West,260,1.0,6.0,92,0.00,,,0.00,,2013-01-08 09:22:00,
2013-01-08 03:32:00,21.0,19.0,-100.00,West,260,1.0,6.0,93,0.00,,,0.00,,2013-01-08 09:32:00,
2013-01-08 03:42:00,21.0,19.0,-100.00,WSW,250,1.0,7.0,93,0.00,,,0.00,,2013-01-08 09:42:00,
2013-01-08 03:52:00,20.0,18.0,-100.00,West,260,1.0,4.0,93,0.00,,,0.00,,2013-01-08 09:52:00,
2013-01-08 04:02:00,20.0,19.0,-100.00,WSW,245,2.0,4.0,93,0.00,,,0.00,,2013-01-08 10:02:00,
2013-01-08 04:12:00,20.0,18.0,-100.00,WSW,250,1.0,5.0,93,0.00,,,0.00,,2013-01-08 10:12:00,
2013-01-08 04:22:00,20.0,19.0,-100.00,WSW,255,1.0,6.0,94,0.00,,,0.00,,2013-01-08 10:22:00,
2013-01-08 04:32:00,21.0,19.0,-100.00,WNW,285,3.0,6.0,94,0.00,,,0.00,,2013-01-08 10:32:00,
2013-01-08 04:42:00,20.0,19.0,-100.00,West,280,2.0,6.0,94,0.00,,,0.00,,2013-01-08 10:42:00,
2013-01-08 04:52:00,20.0,19.0,-100.00,West,275,1.0,6.0,94,0.00,,,0.00,,2013-01-08 10:52:00,
2013-01-08 05:02:00,20.0,18.0,-100.00,WNW,285,1.0,3.0,94,0.00,,,0.00,,2013-01-08 11:02:00,
2013-01-08 05:12:00,19.0,18.0,-100.00,WNW,300,0.0,2.0,94,0.00,,,0.00,,2013-01-08 11:12:00,
2013-01-08 05:22:00,19.0,18.0,-100.00,SW,230,2.0,3.0,94,0.00,,,0.00,,2013-01-08 11:22:00,
2013-01-08 05:32:00,19.0,18.0,-100.00,WSW,245,1.0,3.0,94,0.00,,,0.00,,2013-01-08 11:32:00,
2013-01-08 05:42:00,18.0,18.0,-100.00,WSW,255,0.0,2.0,95,0.00,,,0.00,,2013-01-08 11:42:00,
2013-01-08 05:53:00,18.0,18.0,-100.00,West,260,0.0,2.0,95,0.00,,,0.00,,2013-01-08 11:53:00,
2013-01-08 06:02:00,18.0,18.0,-100.00,WSW,245,0.0,2.0,95,0.00,,,0.00,,2013-01-08 12:02:00,
2013-01-08 06:12:00,18.0,18.0,-100.00,SW,225,2.0,3.0,95,0.00,,,0.00,,2013-01-08 12:12:00,
2013-01-08 06:22:00,18.0,18.0,-100.00,SW,225,2.0,4.0,95,0.00,,,0.00,,2013-01-08 12:22:00,
2013-01-08 06:32:00,18.0,18.0,-100.00,WSW,240,1.0,3.0,95,0.00,,,0.00,,2013-01-08 12:32:00,
2013-01-08 06:42:00,18.0,18.0,-100.00,West,280,2.0,3.0,95,0.00,,,0.00,,2013-01-08 12:42:00,
2013-01-08 06:53:00,19.0,18.0,-100.00,West,275,1.0,2.0,95,0.00,,,0.00,,2013-01-08 12:53:00,
2013-01-08 07:03:00,18.0,16.0,-100.00,NNE,30,1.0,3.0,95,0.00,,,0.00,,2013-01-08 13:03:00,
2013-01-08 07:12:00,18.0,16.0,-100.00,NNW,340,1.0,3.0,95,0.00,,,0.00,,2013-01-08 13:12:00,
2013-01-08 07:22:00,18.0,16.0,-100.00,NNE,30,0.0,3.0,95,0.00,,,0.00,,2013-01-08 13:22:00,
2013-01-08 07:32:00,17.0,16.0,-100.00,NNW,330,1.0,3.0,95,0.00,,,0.00,,2013-01-08 13:32:00,
2013-01-08 07:42:00,17.0,16.0,-100.00,NW,305,1.0,2.0,95,0.00,,,0.00,,2013-01-08 13:42:00,
2013-01-08 07:52:00,17.0,16.0,-100.00,NW,305,0.0,2.0,95,0.00,,,0.00,,2013-01-08 13:52:00,
2013-01-08 08:02:00,18.0,16.0,-100.00,NW,325,0.0,1.0,95,0.00,,,0.00,,2013-01-08 14:02:00,
2013-01-08 08:23:00,18.0,18.0,-100.00,SW,220,0.0,1.0,95,0.00,,,0.00,,2013-01-08 14:23:00,
2013-01-08 08:33:00,18.0,16.0,-100.00,SSE,150,1.0,3.0,95,0.00,,,0.00,,2013-01-08 14:33:00,
2013-01-08 08:42:00,18.0,18.0,-100.00,SSE,165,1.0,3.0,95,0.00,,,0.00,,2013-01-08 14:42:00,
2013-01-08 08:53:00,19.0,18.0,-100.00,WNW,285,0.0,2.0,95,0.00,,,0.00,,2013-01-08 14:53:00,
2013-01-08 09:02:00,20.0,19.0,-100.00,SSW,210,2.0,4.0,95,0.00,,,0.00,,2013-01-08 15:02:00,
2013-01-08 09:12:00,20.0,19.0,-100.00,SSW,210,2.0,4.0,95,0.00,,,0.00,,2013-01-08 15:12:00,
2013-01-08 09:22:00,21.0,19.0,-100.00,SSE,160,0.0,3.0,95,0.00,,,0.00,,2013-01-08 15:22:00,
2013-01-08 09:33:00,22.0,21.0,-100.00,South,180,0.0,1.0,95,0.00,,,0.00,,2013-01-08 15:33:00,
2013-01-08 09:42:00,22.0,21.0,-100.00,WSW,250,0.0,1.0,95,0.00,,,0.00,,2013-01-08 15:42:00,
2013-01-08 09:52:00,22.0,21.0,-100.00,SW,220,1.0,3.0,95,0.00,,,0.00,,2013-01-08 15:52:00,
2013-01-08 10:03:00,23.0,21.0,-100.00,SSW,210,3.0,4.0,95,0.00,,,0.00,,2013-01-08 16:03:00,
2013-01-08 10:12:00,24.0,23.0,-100.00,SW,220,2.0,6.0,95,0.00,,,0.00,,2013-01-08 16:12:00,
2013-01-08 10:22:00,25.0,23.0,-100.00,SE,135,0.0,6.0,95,0.00,,,0.00,,2013-01-08 16:22:00,
2013-01-08 10:33:00,25.0,23.0,-100.00,ENE,70,0.0,4.0,95,0.00,,,0.00,,2013-01-08 16:33:00,
2013-01-08 10:42:00,25.0,23.0,-100.00,NE,35,0.0,2.0,95,0.00,,,0.00,,2013-01-08 16:42:00,
2013-01-08 10:52:00,26.0,25.0,-100.00,SE,140,2.0,7.0,95,0.00,,,0.00,,2013-01-08 16:52:00,
2013-01-08 11:03:00,26.0,25.0,-100.00,SSE,165,3.0,6.0,94,0.00,,,0.00,,2013-01-08 17:03:00,
2013-01-08 11:12:00,25.0,23.0,-100.00,South,170,4.0,8.0,94,0.00,,,0.00,,2013-01-08 17:12:00,
2013-01-08 11:23:00,25.0,23.0,-100.00,SE,140,3.0,8.0,92,0.00,,,0.00,,2013-01-08 17:23:00,
2013-01-08 11:33:00,25.0,23.0,-100.00,ESE,115,4.0,7.0,90,0.00,,,0.00,,2013-01-08 17:33:00,
2013-01-08 11:43:00,25.0,23.0,-100.00,South,185,3.0,7.0,89,0.00,,,0.00,,2013-01-08 17:43:00,
2013-01-08 11:53:00,26.0,23.0,-100.00,South,175,3.0,6.0,88,0.00,,,0.00,,2013-01-08 17:53:00,
2013-01-08 12:03:00,26.0,23.0,-100.00,SE,140,0.0,3.0,88,0.00,,,0.00,,2013-01-08 18:03:00,
2013-01-08 12:12:00,27.0,23.0,-100.00,ESE,120,2.0,4.0,86,0.00,,,0.00,,2013-01-08 18:12:00,
2013-01-08 12:23:00,28.0,25.0,-100.00,South,170,1.0,4.0,85,0.00,,,0.00,,2013-01-08 18:23:00,
2013-01-08 12:33:00,28.0,23.0,-100.00,SSE,150,2.0,5.0,82,0.00,,,0.00,,2013-01-08 18:33:00,
2013-01-08 12:43:00,29.0,23.0,-100.00,SE,125,3.0,6.0,80,0.00,,,0.00,,2013-01-08 18:43:00,
2013-01-08 12:53:00,28.0,23.0,-100.00,SSE,165,3.0,6.0,78,0.00,,,0.00,,2013-01-08 18:53:00,
2013-01-08 13:03:00,29.0,23.0,-100.00,SE,145,4.0,7.0,77,0.00,,,0.00,,2013-01-08 19:03:00,
2013-01-08 13:12:00,30.0,23.0,-100.00,SE,130,2.0,6.0,76,0.00,,,0.00,,2013-01-08 19:12:00,
2013-01-08 13:22:00,29.0,21.0,-100.00,ESE,115,4.0,8.0,74,0.00,,,0.00,,2013-01-08 19:22:00,
2013-01-08 13:32:00,28.0,21.0,-100.00,ENE,70,5.0,8.0,74,0.00,,,0.00,,2013-01-08 19:32:00,
2013-01-08 13:42:00,29.0,21.0,-100.00,ESE,105,6.0,9.0,75,0.00,,,0.00,,2013-01-08 19:42:00,
2013-01-08 13:53:00,28.0,21.0,-100.00,ENE,60,7.0,10.0,77,0.00,,,0.00,,2013-01-08 19:53:00,
2013-01-08 14:03:00,27.0,21.0,-100.00,ESE,105,6.0,11.0,80,0.00,,,0.00,,2013-01-08 20:03:00,
2013-01-08 14:12:00,28.0,23.0,-100.00,ENE,60,6.0,7.0,80,0.00,,,0.00,,2013-01-08 20:12:00,
2013-01-08 14:22:00,28.0,23.0,-100.00,East,95,6.0,11.0,80,0.00,,,0.00,,2013-01-08 20:22:00,
2013-01-08 14:33:00,28.0,23.0,-100.00,East,100,9.0,12.0,81,0.00,,,0.00,,2013-01-08 20:33:00,
2013-01-08 14:43:00,28.0,23.0,-100.00,ESE,110,6.0,10.0,81,0.00,,,0.00,,2013-01-08 20:43:00,
2013-01-08 14:53:00,28.0,23.0,-100.00,ENE,70,7.0,12.0,83,0.00,,,0.00,,2013-01-08 20:53:00,
2013-01-08 15:03:00,27.0,23.0,-100.00,ESE,105,6.0,12.0,84,0.00,,,0.00,,2013-01-08 21:03:00,
2013-01-08 15:12:00,27.0,23.0,-100.00,ESE,110,4.0,9.0,84,0.00,,,0.00,,2013-01-08 21:12:00,
2013-01-08 15:22:00,28.0,25.0,-100.00,ESE,105,8.0,12.0,85,0.00,,,0.00,,2013-01-08 21:22:00,
2013-01-08 15:33:00,28.0,25.0,-100.00,ESE,105,6.0,13.0,86,0.00,,,0.00,,2013-01-08 21:33:00,
2013-01-08 15:43:00,28.0,25.0,-100.00,ENE,75,7.0,15.0,87,0.00,,,0.00,,2013-01-08 21:43:00,
2013-01-08 15:53:00,28.0,25.0,-100.00,ESE,115,7.0,13.0,89,0.00,,,0.00,,2013-01-08 21:53:00,
2013-01-08 16:03:00,28.0,25.0,-100.00,ESE,105,7.0,14.0,90,0.00,,,0.00,,2013-01-08 22:03:00,
2013-01-08 16:12:00,28.0,25.0,-100.00,ESE,105,8.0,14.0,90,0.00,,,0.00,,2013-01-08 22:12:00,
2013-01-08 16:22:00,28.0,27.0,-100.00,East,95,7.0,15.0,90,0.00,,,0.00,,2013-01-08 22:22:00,
2013-01-08 16:32:00,28.0,27.0,-100.00,ESE,110,9.0,17.0,90,0.00,,,0.00,,2013-01-08 22:32:00,
2013-01-08 16:42:00,29.0,27.0,-100.00,East,80,7.0,16.0,91,0.00,,,0.00,,2013-01-08 22:42:00,
2013-01-08 16:52:00,29.0,27.0,-100.00,ESE,115,7.0,14.0,92,0.00,,,0.00,,2013-01-08 22:52:00,
2013-01-08 17:02:00,29.0,27.0,-100.00,East,85,7.0,13.0,93,0.00,,,0.00,,2013-01-08 23:02:00,
2013-01-08 17:12:00,29.0,27.0,-100.00,ESE,105,4.0,12.0,93,0.00,,,0.00,,2013-01-08 23:12:00,
2013-01-08 17:22:00,29.0,28.0,-100.00,ESE,115,4.0,12.0,93,0.00,,,0.00,,2013-01-08 23:22:00,
2013-01-08 17:32:00,29.0,28.0,-100.00,East,100,4.0,10.0,93,0.00,,,0.00,,2013-01-08 23:32:00,
2013-01-08 17:43:00,29.0,28.0,-100.00,SE,145,1.0,6.0,93,0.00,,,0.00,,2013-01-08 23:43:00,
2013-01-08 17:52:00,29.0,28.0,-100.00,SE,140,2.0,7.0,93,0.00,,,0.00,,2013-01-08 23:52:00,
2013-01-08 18:02:00,29.0,28.0,-100.00,SSE,155,3.0,6.0,93,0.00,,,0.00,,2013-01-09 00:02:00,
2013-01-08 18:12:00,30.0,28.0,-100.00,South,180,3.0,6.0,93,0.00,,,0.00,,2013-01-09 00:12:00,
2013-01-08 18:22:00,30.0,28.0,-100.00,South,190,1.0,8.0,91,0.00,,,0.00,,2013-01-09 00:22:00,
2013-01-08 18:33:00,30.0,28.0,-100.00,SSW,195,1.0,10.0,89,0.00,,,0.00,,2013-01-09 00:33:00,
2013-01-08 18:42:00,31.0,27.0,-100.00,SSE,165,4.0,8.0,86,0.00,,,0.00,,2013-01-09 00:42:00,
2013-01-08 18:52:00,31.0,27.0,-100.00,South,185,4.0,9.0,83,0.00,,,0.00,,2013-01-09 00:52:00,
2013-01-08 19:02:00,31.0,27.0,-100.00,SSW,205,4.0,10.0,81,0.00,,,0.00,,2013-01-09 01:02:00,
2013-01-08 19:12:00,31.0,27.0,-100.00,SSW,195,5.0,12.0,81,0.00,,,0.00,,2013-01-09 01:12:00,
2013-01-08 19:22:00,31.0,25.0,-100.00,SSW,200,4.0,9.0,80,0.00,,,0.00,,2013-01-09 01:22:00,
2013-01-08 19:32:00,31.0,25.0,-100.00,SW,225,6.0,13.0,81,0.00,,,0.00,,2013-01-09 01:32:00,
2013-01-08 19:42:00,31.0,25.0,-100.00,SW,215,6.0,14.0,81,0.00,,,0.00,,2013-01-09 01:42:00,
2013-01-08 19:52:00,31.0,25.0,-100.00,SW,225,8.0,13.0,81,0.00,,,0.00,,2013-01-09 01:52:00,
2013-01-08 20:02:00,31.0,27.0,-100.00,SW,230,6.0,20.0,81,0.00,,,0.00,,2013-01-09 02:02:00,
2013-01-08 20:12:00,31.0,27.0,-100.00,WSW,245,7.0,14.0,82,0.00,,,0.00,,2013-01-09 02:12:00,
2013-01-08 20:22:00,31.0,27.0,-100.00,WSW,240,5.0,17.0,82,0.00,,,0.00,,2013-01-09 02:22:00,
2013-01-08 20:32:00,31.0,27.0,-100.00,SW,225,8.0,16.0,82,0.00,,,0.00,,2013-01-09 02:32:00,
2013-01-08 20:42:00,31.0,27.0,-100.00,WSW,250,4.0,19.0,83,0.00,,,0.00,,2013-01-09 02:42:00,
2013-01-08 20:52:00,31.0,27.0,-100.00,WSW,250,9.0,14.0,83,0.00,,,0.00,,2013-01-09 02:52:00,
2013-01-08 21:03:00,31.0,27.0,-100.00,WSW,250,7.0,14.0,83,0.00,,,0.00,,2013-01-09 03:03:00,
2013-01-08 21:12:00,30.0,27.0,-100.00,WSW,250,7.0,18.0,84,0.00,,,0.00,,2013-01-09 03:12:00,
2013-01-08 21:22:00,30.0,27.0,-100.00,WSW,250,7.0,16.0,84,0.00,,,0.00,,2013-01-09 03:22:00,
2013-01-08 21:33:00,30.0,27.0,-100.00,WSW,255,4.0,16.0,84,0.00,,,0.00,,2013-01-09 03:33:00,
2013-01-08 21:42:00,30.0,27.0,-100.00,SW,235,7.0,17.0,84,0.00,,,0.00,,2013-01-09 03:42:00,
2013-01-08 21:52:00,30.0,27.0,-100.00,WSW,250,4.0,14.0,84,0.00,,,0.00,,2013-01-09 03:52:00,
2013-01-08 22:02:00,30.0,27.0,-100.00,WSW,255,4.0,14.0,83,0.00,,,0.00,,2013-01-09 04:02:00,
2013-01-08 22:12:00,30.0,27.0,-100.00,West,260,4.0,12.0,83,0.00,,,0.00,,2013-01-09 04:12:00,
2013-01-08 22:22:00,30.0,27.0,-100.00,WSW,255,3.0,12.0,83,0.00,,,0.00,,2013-01-09 04:22:00,
2013-01-08 22:32:00,30.0,27.0,-100.00,WSW,255,4.0,13.0,83,0.00,,,0.00,,2013-01-09 04:32:00,
2013-01-08 22:42:00,30.0,27.0,-100.00,West,260,4.0,14.0,83,0.00,,,0.00,,2013-01-09 04:42:00,
2013-01-08 22:52:00,30.0,25.0,-100.00,WSW,255,3.0,12.0,83,0.00,,,0.00,,2013-01-09 04:52:00,
2013-01-08 23:03:00,30.0,25.0,-100.00,West,260,3.0,13.0,83,0.00,,,0.00,,2013-01-09 05:03:00,
2013-01-08 23:12:00,30.0,27.0,-100.00,WSW,250,3.0,12.0,83,0.00,,,0.00,,2013-01-09 05:12:00,
2013-01-08 23:22:00,30.0,25.0,-100.00,WSW,255,4.0,16.0,83,0.00,,,0.00,,2013-01-09 05:22:00,
2013-01-08 23:33:00,30.0,27.0,-100.00,WSW,255,2.0,13.0,84,0.00,,,0.00,,2013-01-09 05:33:00,
2013-01-08 23:42:00,30.0,27.0,-100.00,WSW,250,4.0,11.0,84,0.00,,,0.00,,2013-01-09 05:42:00,
2013-01-08 23:52:00,30.0,27.0,-100.00,West,265,4.0,12.0,84,0.00,,,0.00,,2013-01-09 05:52:00,